Showing default

NANOFF B, 58755

Orbit data source: Space-Track

NANOFF B, 58755 is a payload satellite owned by TUB (DE) in SSO that was launched on Fri, 01 Dec 2023 UTC via an FALCON 9 launch vehicle from the Air Force Western Test Range (AFWTR). Payload-class satellites include a variety of spacecraft equipped with specific instruments for various scientific and technological missions. These include communications satellites like Starlink; space stations such as the ISS; scientific satellites like the Hubble; Earth observation satellites from companies like Planet Labs, Umbra, and HawkEye 360; GPS; miniature CubeSats for education and research; and military/defense satellites.

Loading next visibility...
Identifier
58755, 2023-185S
Orbit
SSO
Country
Flag of DEDE / GER
Related business
Manufacturer
TUB
Mission
Operational Amateur Technology
Bus & Motor
CUBESAT 2U, Unknown motor
Mass
2.7 kg wet, 2.7 kg dry
Launch date (UTC)
2023-12-01 (2 years ago)
Launch vehicle
FALCON 9
Launch site
Air Force Western Test Range (AFWTR)
Object type
Payload
Rocket body
Debris
Shape & HBR
Box + 2 Pan, 0.3 m
Radar Cross Section
0.046 m², Small (<0.1 m²)

Expand to show TLE details & history
Last TLE update: 23 hours ago

TLE from 23 hours ago
0 NANOFF B
1 58755U 23185S   25305.63157486  .00004301  00000-0  26728-3 0  9990
2 58755  97.5579  11.2444 0013205  14.5808 345.5800 15.10122236 99508
Epoch: 2025-11-01T15:09Z
TLE epoch observation values (Epoch: 2025-11-01T15:09:28.067Z)
Latitude
-0.00002°
Longitude
102.71858°
Altitude
530.056 km
Speed
7.603 km/s
True Right ascension
00h 44m 58s
True Declination
0° 00' 00"
Sunlit
Object was in full shadow at epoch
Visualization orbit readout
Latitude
Unknown
Longitude
Unknown
Altitude
Unknown
Speed
Unknown
Apparent Right ascension
Unknown
Apparent Declination
Unknown
Sunlit
N/A
Visualization observer readout
Local Sidereal Time
10:08:20
Azimuth
Unknown
Elevation
Unknown
Doppler factor
Unknown
Orbital elements
Apogee altitude
541.938 km
Perigee altitude
523.687 km
Semi-major axis
6,910.949 km
Eccentricity
0.00132
Inclination
97.5579°
RAAN
11.2444°
Arg. of periapsis
14.5808°
True anomaly
345.54226°
Mean anomaly
345.58°
Eccentric anomaly
345.56113°
Mean motion
3.77778 °/min
Orbital period
95.29 mins
BSTAR
0.00026728
Loading maneuver chart data...
Computing Atmospheric mass density...
Loading historical data...
Loading historical data...
Loading historical data...
Loading historical data...
Loading historical data...
Loading historical data...
Loading historical data...

Documentation

Showing up to 5 results
|